Ashtabula, OH

10:48 PM EST on December 12, 2017 (GMT -0500)
Ashtabula County

Weather History for KHZY - December, 2013

Change the Weather History Date:

Wednesday, December 18, 2013

  Actual Average (KGKJ) Record (KGKJ)
Temperature  
Mean Temperature 26 °F -  
Max Temperature 28 °F 34 °F 60 °F (1984)
Min Temperature 24 °F 19 °F -14 °F (1951)
Degree Days  
Heating Degree Days 39    
Moisture  
Dew Point 18 °F    
Average Humidity 73    
Maximum Humidity 81    
Minimum Humidity 63    
Precipitation  
Precipitation 0.00 in - - ()
Sea Level Pressure  
Sea Level Pressure 30.08 in    
Wind  
Wind Speed 12 mph (SW)    
Max Wind Speed 16 mph    
Max Gust Speed 23 mph    
Visibility 7 miles    
Events Snow    
Averages and records for this station are not official NWS values.
T = Trace of Precipitation, MM = Missing Value Source: NWS Daily Summary

Daily Weather History Graph

Daily Weather History Graph

Search for Another Location

Airport or City:

Trip Planner

Search our weather history database for the weather conditions in past years. The results will help you decide how hot, cold, wet, or windy it might be!

Date:

Astronomy

Dec. 18, 2013 Rise Set
Actual Time 7:45 AM EST 4:53 PM EST
Civil Twilight 7:13 AM EST 5:25 PM EST
Nautical Twilight 6:38 AM EST 6:00 PM EST
Astronomical Twilight 6:04 AM EST 6:34 PM EST
Moon 6:25 PM EST (12/18) 8:22 AM EST (12/18)
Length of Visible Light 10h 12m
Length of Day
9h 08m
Full, 98% of the Moon is Illuminated
Dec 18
Full
Dec 25
Last Quarter
Jan 1
New
Jan 7
First Quarter
Jan 15
Full

Hourly Weather History & Observations

Time (EST) Temp. Windchill Dew Point Humidity Pressure Visibility Wind Dir Wind Speed Gust Speed Precip Events Conditions
12:22 AM 26.6 °F 16.2 °F 21.2 °F 80% 29.98 in 3.0 mi WSW 11.5 mph - 0.00 in Snow Light Snow
12:53 AM 26.1 °F 15.0 °F 19.9 °F 78% 30.02 in 5.0 mi WSW 12.7 mph - 0.00 in Snow Light Snow
1:05 AM 26.6 °F 16.2 °F 19.4 °F 74% 29.99 in 9.0 mi West 11.5 mph - 0.00 in   Overcast
1:53 AM 26.1 °F 16.2 °F 19.9 °F 78% 30.03 in 8.0 mi WSW 10.4 mph - 0.00 in   Overcast
2:37 AM 26.6 °F 15.7 °F 19.4 °F 74% 30.01 in 8.0 mi WSW 12.7 mph - N/A   Overcast
2:53 AM 26.1 °F 15.0 °F 19.9 °F 78% 30.05 in 8.0 mi WSW 12.7 mph - N/A   Overcast
3:53 AM 27.0 °F 17.3 °F 19.9 °F 75% 30.05 in 9.0 mi WSW 10.4 mph - 0.00 in   Overcast
4:53 AM 25.0 °F 14.8 °F 19.0 °F 78% 30.06 in 8.0 mi SW 10.4 mph - 0.00 in   Overcast
5:03 AM 26.6 °F 17.5 °F 19.4 °F 74% 30.02 in 8.0 mi SW 9.2 mph - N/A   Overcast
5:53 AM 25.0 °F 15.5 °F 19.9 °F 81% 30.06 in 6.0 mi SW 9.2 mph - N/A   Haze
6:53 AM 25.0 °F 16.3 °F 19.9 °F 81% 30.08 in 7.0 mi SW 8.1 mph - N/A   Overcast
7:53 AM 25.0 °F 16.3 °F 19.9 °F 81% 30.09 in 4.0 mi SW 8.1 mph - 0.00 in Snow Light Snow
8:08 AM 24.8 °F 16.1 °F 19.4 °F 80% 30.06 in 1.8 mi WSW 8.1 mph - 0.00 in Snow Light Snow
8:24 AM 26.6 °F 16.8 °F 19.4 °F 74% 30.06 in 2.5 mi SW 10.4 mph - 0.00 in Snow Light Snow
8:32 AM 24.8 °F 15.3 °F 19.4 °F 80% 30.06 in 3.0 mi WSW 9.2 mph - 0.00 in Snow Light Snow
8:51 AM 24.8 °F 14.6 °F 19.4 °F 80% 30.07 in 2.0 mi WSW 10.4 mph - 0.00 in Snow Light Snow
8:53 AM 25.0 °F 15.5 °F 19.9 °F 81% 30.11 in 1.8 mi WSW 9.2 mph - 0.00 in Snow Light Snow
9:01 AM 24.8 °F 14.0 °F 19.4 °F 80% 30.07 in 1.5 mi WSW 11.5 mph - 0.00 in Snow Light Snow
9:12 AM 24.8 °F 14.0 °F 19.4 °F 80% 30.08 in 2.5 mi WSW 11.5 mph - 0.00 in Snow Light Snow
9:20 AM 24.8 °F 13.4 °F 19.4 °F 80% 30.08 in 5.0 mi WSW 12.7 mph - 0.00 in Snow Light Snow
9:33 AM 24.8 °F 12.9 °F 19.4 °F 80% 30.09 in 5.0 mi WSW 13.8 mph - 0.00 in Snow Light Snow
9:53 AM 25.0 °F 13.1 °F 18.0 °F 75% 30.13 in 5.0 mi WSW 13.8 mph - 0.00 in Snow Light Snow
10:14 AM 24.8 °F 12.9 °F 19.4 °F 80% 30.11 in 4.0 mi WSW 13.8 mph - 0.00 in Snow Light Snow
10:35 AM 24.8 °F 13.4 °F 19.4 °F 80% 30.11 in 3.0 mi WSW 12.7 mph - 0.00 in Snow Light Snow
10:53 AM 26.1 °F 15.0 °F 19.0 °F 75% 30.15 in 6.0 mi WSW 12.7 mph - 0.00 in   Haze
11:53 AM 27.0 °F 16.7 °F 19.9 °F 75% 30.14 in 6.0 mi WSW 11.5 mph - 0.00 in   Haze
12:30 PM 26.6 °F 16.8 °F 19.4 °F 74% 30.10 in 10.0 mi WSW 10.4 mph - 0.00 in   Overcast
12:53 PM 28.0 °F 17.5 °F 19.0 °F 69% 30.13 in 10.0 mi WSW 12.7 mph - 0.00 in   Overcast
1:19 PM 28.4 °F 17.5 °F 19.4 °F 69% 30.10 in 10.0 mi WSW 13.8 mph - N/A   Overcast
1:31 PM 28.4 °F 17.5 °F 19.4 °F 69% 30.10 in 10.0 mi SW 13.8 mph - N/A   Overcast
1:53 PM 28.0 °F 18.1 °F 19.0 °F 69% 30.13 in 10.0 mi WSW 11.5 mph - N/A   Overcast
2:53 PM 28.0 °F 16.5 °F 18.0 °F 66% 30.13 in 10.0 mi WSW 15.0 mph - N/A   Overcast
3:37 PM 28.4 °F 18.0 °F 17.6 °F 64% 30.11 in 10.0 mi WSW 12.7 mph - N/A   Overcast
3:53 PM 28.0 °F 18.1 °F 17.1 °F 63% 30.14 in 10.0 mi WSW 11.5 mph - N/A   Overcast
4:53 PM 27.0 °F 16.7 °F 16.0 °F 63% 30.15 in 10.0 mi SW 11.5 mph - N/A   Mostly Cloudy
5:19 PM 26.6 °F 17.5 °F 15.8 °F 64% 30.11 in 10.0 mi SW 9.2 mph - N/A   Mostly Cloudy
5:36 PM 26.6 °F 15.7 °F 15.8 °F 64% 30.11 in 10.0 mi SSW 12.7 mph - N/A   Scattered Clouds
5:53 PM 26.1 °F 15.6 °F 15.1 °F 63% 30.14 in 10.0 mi SSW 11.5 mph - N/A   Clear
6:53 PM 25.0 °F 13.6 °F 15.1 °F 66% 30.14 in 10.0 mi SSW 12.7 mph 20.7 mph N/A   Clear
7:53 PM 24.1 °F 12.0 °F 15.1 °F 69% 30.12 in 10.0 mi South 13.8 mph - N/A   Clear
8:53 PM 24.1 °F 11.0 °F 15.1 °F 69% 30.10 in 10.0 mi South 16.1 mph 23.0 mph N/A   Clear
9:53 PM 24.1 °F 11.0 °F 14.0 °F 65% 30.06 in 10.0 mi South 16.1 mph 23.0 mph N/A   Clear
10:53 PM 24.1 °F 13.1 °F 14.0 °F 65% 30.04 in 10.0 mi South 11.5 mph - N/A   Clear
11:53 PM 26.1 °F 15.0 °F 15.1 °F 63% 30.01 in 10.0 mi South 12.7 mph 23.0 mph N/A   Partly Cloudy